Location: Dammartin
(48.9032°N, 1.6195°E)
Time: 14:02:09
(UTC+00:00)

Cosmos 1633 - Pass Details

Date: 03 February 2023
Orbit: 423 x 432 km, 82.5° (Epoch: 30 March)

Event Time Altitude Azimuth Distance (km) Brightness Sun altitude
Rises 17:30:10 0° 144° (SE) 2,373 5.9 -6.4°
Reaches altitude 10° 17:32:59 10° 116° (ESE) 1,513 4.6 -6.8°
Maximum altitude 17:34:38 13° 86° (E) 1,330 4.2 -7.1°
Drops below altitude 10° 17:36:18 10° 56° (NE) 1,521 4.5 -7.4°
Enters shadow 17:37:08 - 45° (NE) 1,732 4.8 -7.5°
